Regional Weather Roundup
Issued by NWS

Home | Current Version | Previous Version | Text Only | Print | Product List | Glossary Off
Versions: 1 2 3 4 5 6 7 8 9 10 11 12 13 14 15 16 17 18 19 20 21 22 23 24 25 26 27 28 29 30 31 32 33 34 35 36 37 38 39 40 41 42 43 44 45 46 47 48 49 50

000
ASUS43 KMPX 041510
RWRMN
WEATHER ROUNDUP FOR MINNESOTA
NATIONAL WEATHER SERVICE TWIN CITIES/CHANHASSEN MN
900 AM CST WED MAR 04 2015


NOTE: "FAIR" INDICATES FEW OR NO CLOUDS BELOW 12,000 FEET WITH NO
SIGNIFICANT WEATHER AND/OR OBSTRUCTIONS TO VISIBILITY. N/A MEANS
CURRENT SKY AND/OR WEATHER CONDITIONS ARE NOT AVAILABLE.

MNZ060>063-068>070-041600-
   Twin Cities Metro

CITY           SKY/WX    TMP DP  RH WIND       PRES   REMARKS
TWIN CITIES    PTSUNNY    3  -8  60 W10       30.23R WCI -12
ST PAUL        MOSUNNY    5  -6  60 NW14      30.24R WCI -12
CRYSTAL        MOSUNNY    2  -8  63 W8        30.21R WCI -12
BLAINE         SUNNY      3  -6  66 W9        30.19R WCI -11
LAKEVILLE      SUNNY      1  -8  66 W10       30.21R WCI -14
EDEN PRAIRIE   CLOUDY     2  -8  63 NW12      30.22R WCI -15
SOUTH ST PAUL  SUNNY      5  -7  59 W13       30.23R WCI -12
LAKE ELMO      FAIR       5  -4  66 W10       30.21R WCI -10
$$
MNZ001>005-007-008-013>017-022>024-027-028-041600-
   Northwest Minnesota

CITY           SKY/WX    TMP DP  RH WIND       PRES   REMARKS
BEMIDJI        SUNNY     -8 -15  71 NW14      30.10R WCI -29
HALLOCK        SUNNY     -8 -17  65 NW14      30.20R WCI -28
ROSEAU         SUNNY     -9 -17  70 W12       30.13R WCI -29
WARROAD        SUNNY    -11 -18  70 W13       30.11R WCI -32
THIEF RVR FALL SUNNY     -9 -18  64 NW13      30.17R WCI -30
CROOKSTON      SUNNY     -6 -11  77 NW12G20   30.24R WCI -24
FOSSTON        SUNNY     -8 -17  65 NW10G16   30.16R WCI -26
DETROIT LAKES  SUNNY     -4  -9  77 NW16G22   30.15R WCI -25
MOORHEAD       SUNNY     -2  -9  71 NW16      30.23R WCI -23
PARK RAPIDS    MOSUNNY   -5 -13  68 NW16      30.10R WCI -27
MAHNOMEN       FAIR      -7 -14  73 NW15      30.17R WCI -29
$$
MNZ006-009>011-018-025>026-041600-
   North Central Minnesota

CITY           SKY/WX    TMP DP  RH WIND       PRES   REMARKS
BAUDETTE       SUNNY    -11 -18  71 NW15      30.07R WCI -33
FLAG ISLAND    SUNNY    -11 -18  70 W16       30.08R WCI -34
INTL FALLS     PTSUNNY  -10 -18  67 W14       30.05R WCI -31
WASKISH        SUNNY     -8 -15  71 W12       30.10R WCI -27
BIG FORK       SUNNY     -6 -15  65 NW6       30.05R WCI -18
LONGVILLE      MOSUNNY   -6 -11  77 NW7       30.10R WCI -20
GRAND RAPIDS   PTSUNNY   -6 -11  77 NW14      30.04R WCI -26
CRANE LAKE     MOSUNNY   -9 -18  64 NW7       30.06R WCI -24
ORR            SUNNY     -9 -18  64 NW9       30.00R WCI -27
COOK           SUNNY     -9 -15  77 W12       30.02R WCI -29
WALKER         FAIR      -7 -15  68 NW8       30.10R WCI -23
$$
MNZ012-019>021-037-041600-
   Northeast Minnesota

CITY           SKY/WX    TMP DP  RH WIND       PRES   REMARKS
DULUTH         MOSUNNY   -4 -13  65 NW15      30.02R WCI -25
ELY            SUNNY     -8 -17  65 W13       29.98R HAZE    WCI -28
HIBBING        MOSUNNY   -6 -15  65 NW16      30.03R WCI -28
EVELETH        SUNNY     -6 -13  71 W10       30.03R WCI -23
DULUTH HARBOR  MOSUNNY    0  -9  65 W9        30.13R WCI -16
TWO HARBORS    FAIR       1 -11  55 W7        30.02R WCI -11
SILVER BAY     SUNNY      1 -13  51 W5        30.00R WCI  -8
GRAND MARAIS     N/A      0 -15  49 W10G18    30.04R WCI -16
G MARAIS ARPRT LGT SNOW  -8 -22  49 W16G24    29.86R WCI -30
$$
MNZ029>031-032-039>041-046>048-054>057-064-041600-
   West Central Minnesota

CITY           SKY/WX    TMP DP  RH WIND       PRES   REMARKS
FERGUS FALLS   SUNNY     -2 -11  65 NW14      30.24R WCI -21
WHEATON        SUNNY      0  -9  65 W10G18    30.25R WCI -17
MORRIS         SUNNY      1  -6  71 NW15      30.20R WCI -18
ALEXANDRIA     SUNNY     -2  -9  72 W12       30.15R WCI -20
ELBOW LAKE     FAIR      -2  -9  72 NW16G22   30.19R WCI -22
WADENA         SUNNY     -4 -11  71 W10       30.12R WCI -21
GLENWOOD       SUNNY     -2  -8  78 W10       30.17R WCI -19
APPLETON       SUNNY      3  -6  66 NW9       30.23R WCI -11
BENSON         SUNNY      3  -8  60 N10       30.21R WCI -12
ORTONVILLE       N/A      1  -8  66 NW9       30.23R WCI -14
MADISON        MOSUNNY    5   0  78 NW7       30.23R HAZE    WCI  -7
WILLMAR        FAIR       3  -6  66 NW14      30.20R WCI -15
$$
MNZ033>034-036-042>043-049>051-058-059-041600-
   Central Minnesota

CITY           SKY/WX    TMP DP  RH WIND       PRES   REMARKS
ST CLOUD       SUNNY      1  -9  62 NW15      30.18R WCI -18
SAUK CENTRE    FAIR      -3  -8  76 W9        30.17R WCI -18
PAYNESVILLE    MOSUNNY   -2  -8  75 W9        30.19R WCI -18
AITKIN         SUNNY      1 -11  55 W7        30.09R WCI -11
PINE RIVER     SUNNY     -6 -11  77 NW8       30.14R WCI -21
BRAINERD       SUNNY     -4 -12  68 W9        30.12R WCI -20
STAPLES        SUNNY     -6 -13  71 W9        30.13R WCI -22
LITTLE FALLS   SUNNY      0  -9  65 W12       30.17R WCI -18
LITCHFIELD     SUNNY      1  -6  71 NW3       30.20R
BUFFALO        MOSUNNY    0  -8  68 W7        30.22R WCI -13
MAPLE LAKE     MOSUNNY    1  -6  73 SW6       30.20R WCI -11
$$
MNZ037-044-045-052-053-041600-
   East Central Minnesota

CITY           SKY/WX    TMP DP  RH WIND       PRES   REMARKS
PRINCETON      SUNNY      1  -8  66 W8        30.17R WCI -12
MORA           SUNNY      1  -9  60 NW10G20   30.16R WCI -14
CAMBRIDGE      SUNNY      1  -9  60 W8        30.15R WCI -12
RUSH CITY      SUNNY      1  -9  61 W8G16     30.17R WCI -13
MOOSE LAKE     SUNNY      0 -11  60 NW12G18   30.09R WCI -18
HINCKLEY       FAIR       1  -6  71 W10       30.13R WCI -14
CLOQUET        SUNNY     -4 -11  71 W9G18     30.05R WCI -20
MCGREGOR       SUNNY      0  -9  65 W9        30.09R WCI -16
$$
MNZ071>073-080-081-089-090-097-098-041600-
   Southwest Minnesota

CITY           SKY/WX    TMP DP  RH WIND       PRES   REMARKS
MONTEVIDEO     PTSUNNY    7   0  72 NW6       30.24R WCI  -3
GRANITE FALLS  CLOUDY     4  -2  76 CALM      30.25R HAZE
CANBY          CLOUDY     7  -1  70 NW9       30.24R HAZE    WCI  -7
MARSHALL       CLOUDY     3  -8  60 NW7       30.23R WCI  -9
REDWOOD FALLS  CLOUDY     2  -8  63 NW8       30.23R WCI -12
OLIVIA         MOSUNNY    3  -4  72 NW9       30.22R WCI -11
PIPESTONE      SUNNY      0  -6  78 CALM      30.15R
WINDOM         PTSUNNY    3  -4  72 W8        30.20R WCI -10
WORTHINGTON    SUNNY      7  -2  66 W5        30.19R WCI  -2
JACKSON        SUNNY      7  -4  61 W9        30.19R WCI  -7
TRACY          CLOUDY     4  -4  68 W7        30.22R WCI  -8
SLAYTON        CLOUDY     3  -5  68 CALM      30.18R
$$
MNZ065>067-074>077-082>085-091>093-041600-
   South Central Minnesota

CITY           SKY/WX    TMP DP  RH WIND       PRES   REMARKS
MANKATO        PTSUNNY    3  -6  66 NW10      30.22R WCI -12
NEW ULM        CLOUDY     3  -8  60 NW10      30.23R WCI -12
ST JAMES       SUNNY      7  -6  56 W10G16    30.24R WCI  -8
FAIRMONT       SUNNY      7  -6  56 W6        30.21R WCI  -3
GLENCOE        CLOUDY     2  -5  72 W8        30.22R WCI -12
FARIBAULT      SUNNY      3  -6  66 W12       30.21R WCI -13
OWATONNA       SUNNY      3  -6  66 NW13      30.20R WCI -14
WASECA         SUNNY      3  -4  72 NW9       30.22R WCI -11
ALBERT LEA     SUNNY      3  -6  66 NW7       30.20R WCI  -9
$$
MNZ078>079-086>088-094>096-041600-
   Southeast Minnesota

CITY           SKY/WX    TMP DP  RH WIND       PRES   REMARKS
ROCHESTER      SUNNY      2  -7  66 NW15      30.18R WCI -17
RED WING       SUNNY      5  -8  56 NW13      30.22R WCI -12
STANTON        SUNNY      4  -5  66 W9        30.21R WCI -10
DODGE CENTER   SUNNY      1  -6  71 W10       30.17R WCI -14
WINONA         SUNNY      9  -4  56 NW12      30.23R WCI  -6
AUSTIN         SUNNY      3  -6  66 NW14G20   30.20R WCI -15
PRESTON        SUNNY      1  -7  68 NW13      30.17R WCI -17
$$
ABBREVIATIONS USED IN REMARKS
   TC - TEMPERATURES IN CELSIUS
  WCI - WIND CHILL INDEX
   HX - HEAT INDEX
  VSB - VISIBILITY
$$


USA.gov is the U.S. government's official web portal to all federal, state and local government web resources and services.